Probability
0 0 0 0 0 0 0 0 0 0 0 0 0 0 0 0 0 0 0 0 0 0 0 0 1 3 3 3 2 1 1 0 0 0 0 0 0 0 1 2 2 3 3 3
0 0 0 0 0 0 0 0 0 0 0 0 0 0 0 0 0 0 0 0 0 0 0 1 2 3 3 2 1 1 1 1 0 0 0 0 0 0 0 1 1 2 3 3
0 0 0 0 0 0 0 0 0 0 0 0 0 0 0 0 0 0 0 0 0 0 0 1 2 2 2 1 0 1 2 2 1 0 0 0 0 0 0 0 0 1 2 3
0 0 0 0 0 0 0 0 0 0 0 0 0 0 0 0 0 0 0 0 0 0 0 0 1 1 1 0 0 0 1 2 2 1 0 0 0 0 0 0 0 1 2 2
0 0 0 0 0 0 0 0 0 0 0 0 0 0 0 0 0 0 0 0 0 0 0 0 0 0 0 0 0 0 0 1 2 2 1 0 0 0 0 0 0 0 1 1
0 0 0 0 0 0 0 0 0 0 0 0 0 0 0 0 0 0 0 0 0 0 0 0 0 0 0 0 0 0 0 0 1 1 1 0 0 0 0 0 0 0 0 1
0 0 0 0 0 0 0 0 0 0 0 0 0 0 0 0 0 0 0 0 0 0 0 0 0 0 0 0 0 0 0 0 0 0 0 0 0 0 0 0 0 0 0 0
0 0 0 0 0 0 0 0 0 0 0 0 0 0 0 0 0 0 0 0 0 0 0 0 0 0 0 0 0 0 0 0 0 0 0 0 0 0 0 0 0 0 0 0
0 0 0 0 0 0 0 0 0 0 0 0 0 0 0 0 0 0 0 0 0 0 0 0 0 0 0 0 0 0 0 0 0 0 0 0 0 0 0 0 0 0 0 0
0 0 0 0 0 0 0 0 0 0 0 0 0 0 0 0 0 0 0 0 0 0 0 0 1 1 1 0 0 0 0 0 0 0 0 0 0 0 0 0 0 0 0 0
0 0 0 0 0 0 0 0 0 0 0 0 0 0 0 0 0 0 0 0 0 0 0 0 1 2 1 0 0 0 0 0 0 0 0 0 0 0 0 0 0 0 0 0
0 0 0 0 0 0 0 0 0 0 0 0 0 0 0 0 0 0 0 0 0 0 0 0 1 2 2 1 0 0 0 0 0 0 0 0 0 0 0 0 0 0 0 0
0 0 0 0 0 0 0 0 0 0 0 0 0 0 0 0 0 0 0 0 0 0 0 0 0 1 2 2 1 0 0 0 0 0 0 0 0 0 0 0 0 0 0 0
0 0 0 0 0 0 0 0 0 0 0 0 0 0 0 0 0 0 0 0 0 0 0 0 0 1 2 2 1 0 0 0 0 0 0 0 0 0 0 0 0 0 0 0
0 0 0 0 0 0 0 0 0 0 0 0 0 0 0 0 0 0 0 0 0 0 0 0 0 0 1 1 0 0 0 0 0 0 0 0 0 0 0 0 0 0 0 0
0 0 0 0 0 0 0 0 0 0 0 0 0 0 0 0 0 0 0 0 0 0 0 0 0 0 0 0 0 0 0 0 0 0 0 0 0 0 0 0 0 0 0 0
0 0 0 0 0 0 0 0 0 0 0 0 0 0 0 0 0 0 0 0 0 0 0 0 0 0 0 0 0 0 0 0 0 0 0 0 0 0 0 0 0 0 0 0
0 0 0 0 0 0 0 0 0 0 0 0 0 0 0 0 0 0 0 0 0 0 0 0 0 0 0 0 0 0 0 0 0 0 0 0 0 0 0 0 0 0 0 0
0 0 0 0 0 0 0 0 0 0 0 0 0 0 0 0 0 0 0 0 0 0 0 0 0 0 0 0 0 0 0 0 0 0 0 0 0 0 0 0 0 0 0 0
0 0 0 0 0 0 0 0 0 0 0 0 0 0 0 0 0 0 0 0 0 0 0 0 0 0 0 0 0 0 0 0 0 0 0 0 0 0 0 0 0 0 0 0
0 0 0 0 0 0 0 0 0 0 0 0 0 0 0 0 0 0 0 0 0 0 0 0 0 0 0 0 0 0 0 0 0 0 0 0 0 0 0 0 0 0 0 0
0 0 0 0 0 0 0 0 0 0 0 0 0 0 0 0 0 0 0 0 0 0 0 0 0 0 0 0 0 0 0 0 0 0 0 0 0 0 0 0 0 0 0 0
0 0 0 0 0 0 0 0 0 0 0 0 0 0 0 0 0 0 0 0 0 0 0 0 0 0 0 0 0 0 0 0 0 0 0 0 0 0 0 0 0 0 0 0
0 0 0 0 0 0 0 0 0 0 0 0 0 0 0 0 0 0 0 0 0 0 0 0 0 0 0 0 0 0 0 0 0 0 0 0 0 0 0 0 0 0 0 0
0 0 0 0 0 0 0 0 0 0 0 0 0 0 0 0 0 0 0 0 0 0 0 0 0 0 0 0 0 0 0 0 0 0 0 0 0 0 0 0 0 0 0 0
0 0 0 0 0 0 0 0 0 0 0 0 0 0 0 0 0 0 0 0 0 0 0 0 0 0 0 0 0 0 0 0 0 0 0 0 0 0 0 0 0 0 0 0
Wind_Speed
2 1 1 2 3 5 5 6 6 5 3 3 7 9 6 4 4 5 4 4 3 3 2 2 3 4 4 3 4 4 4 3 3 2 2 2 1 1 1 1 2 2 2 2
1 3 3 3 3 4 6 6 6 4 3 4 7 10 7 5 5 5 4 4 3 2 2 2 2 3 3 3 4 4 4 4 3 2 2 2 2 1 1 1 1 1 2 2
3 1 2 3 4 4 5 5 5 6 6 4 6 8 5 3 4 4 4 3 2 3 3 3 2 2 3 3 3 3 3 3 3 2 2 2 2 1 1 1 1 1 2 2
2 2 2 3 4 4 5 4 5 5 5 4 2 5 4 3 3 4 4 3 2 2 3 2 2 2 2 2 2 3 3 3 3 3 2 3 2 2 2 2 2 2 2 2
2 1 2 3 3 4 3 5 6 5 5 5 5 5 6 4 4 5 3 2 2 2 3 2 2 1 2 2 2 2 3 3 3 2 2 2 2 1 1 2 2 2 2 2
3 2 1 2 2 2 2 4 5 3 2 5 6 5 5 3 5 3 3 2 2 2 2 2 2 2 2 2 2 2 3 2 3 3 2 2 2 2 2 2 2 2 1 2
3 3 2 0 1 1 1 1 2 1 2 5 3 4 5 2 0 2 3 3 3 3 3 2 2 1 1 2 2 2 3 2 2 3 3 3 2 2 3 2 2 1 1 1
3 3 3 2 1 2 3 2 2 3 3 3 2 5 3 1 2 3 3 3 3 2 2 2 1 1 1 2 2 2 2 3 3 3 3 2 2 1 1 2 2 2 2 2
2 2 1 0 1 1 1 3 2 2 3 4 5 4 1 2 2 1 2 2 1 1 1 1 1 1 1 1 1 1 2 2 2 2 3 2 2 2 1 1 1 1 1 1
2 3 1 0 1 2 2 1 0 2 3 5 5 4 3 2 1 0 1 1 1 1 1 1 1 1 1 1 1 1 1 1 2 2 2 2 2 2 1 1 1 1 1 1
1 2 2 2 4 4 2 2 3 3 3 3 4 3 2 2 2 1 1 2 2 2 1 0 0 1 1 1 0 0 1 1 1 1 1 1 2 2 2 2 2 2 1 2
1 1 3 3 1 1 2 3 4 3 4 4 4 5 2 2 2 2 1 1 1 2 2 1 0 1 1 0 0 0 0 0 1 1 1 1 2 2 2 2 2 2 2 2
1 1 2 2 1 1 3 3 3 2 2 4 5 6 1 3 2 2 1 1 1 1 2 2 1 0 0 0 0 0 0 0 0 0 0 0 1 2 2 2 2 2 2 2
1 2 5 5 3 2 4 4 4 4 4 5 8 8 5 3 2 2 1 1 2 2 2 2 2 1 1 0 0 0 1 1 0 0 0 1 1 2 2 2 2 2 2 2
1 3 5 7 6 4 5 6 7 9 9 8 8 8 7 4 3 2 1 1 2 2 2 2 2 2 2 1 1 1 1 1 1 0 1 1 1 1 2 2 2 2 2 2
1 2 3 6 5 4 7 9 9 10 9 10 10 11 5 3 2 2 2 2 2 2 2 2 2 3 2 2 2 1 1 1 1 1 1 1 1 1 2 2 2 2 2 2
2 2 2 4 2 3 9 9 10 7 7 7 10 9 3 3 3 3 2 2 3 3 2 2 3 3 3 2 2 1 1 1 1 1 1 1 1 2 2 2 2 2 2 2
4 2 2 3 2 7 7 1 5 7 7 7 7 4 2 2 3 3 3 2 2 2 3 3 2 3 3 2 2 1 1 1 1 1 1 1 1 1 2 2 2 2 2 2
3 4 2 2 4 8 5 2 2 3 6 5 6 5 4 3 4 3 1 1 1 2 2 2 2 2 2 2 2 2 2 2 1 2 2 2 2 2 2 2 3 2 2 2
1 2 3 3 4 6 3 0 0 1 5 2 2 3 3 2 2 3 2 3 2 2 2 2 2 2 2 2 1 2 2 2 2 2 2 2 2 2 3 3 3 2 2 2
3 3 5 6 5 7 2 1 1 2 4 2 2 2 2 2 4 4 3 3 2 2 2 3 3 2 2 2 1 2 2 2 3 2 2 2 2 2 2 2 2 2 2 2
7 6 6 5 6 8 2 2 3 4 2 2 2 3 3 3 4 4 3 3 3 2 3 3 3 3 2 2 2 2 3 2 2 2 2 2 2 2 1 1 1 1 1 2
6 6 4 6 7 3 2 3 2 1 2 2 3 3 3 3 3 4 3 3 3 3 3 2 3 3 3 2 1 2 3 2 2 2 2 2 2 2 1 1 1 1 1 2
4 2 2 4 6 4 4 3 2 3 3 4 4 3 3 3 3 4 3 3 3 3 3 2 3 3 4 3 2 2 2 2 2 2 2 2 2 2 1 1 1 2 2 2
2 3 3 6 5 4 4 3 3 3 3 4 3 3 3 3 3 3 3 3 3 3 3 2 3 3 4 4 3 2 2 2 2 2 2 2 2 1 1 1 2 2 3 3
4 5 5 6 4 4 4 2 3 3 4 4 3 4 3 3 3 3 3 3 3 3 3 3 3 4 4 4 3 3 2 2 2 2 2 2 1 1 1 1 2 3 4 5
Wind_Direction
202 227 244 261 259 290 299 288 288 294 319 292 270 271 264 246 239 243 235 227 216 204 169 165 160 146 146 149 149 151 154 149 139 135 140 140 142 133 115 119 122 120 114 108
232 251 283 297 287 284 283 281 289 302 317 305 289 279 269 243 237 239 235 231 203 182 160 159 147 139 141 145 152 154 156 153 149 153 154 144 134 134 129 112 107 126 130 132
244 310 314 291 286 282 281 277 288 299 311 284 288 289 251 235 211 217 232 232 198 182 172 169 155 145 146 145 150 156 156 153 152 147 127 115 103 100 109 141 167 169 146 137
266 284 306 290 289 292 283 309 300 294 294 280 273 290 267 223 218 223 221 214 191 172 152 151 153 169 160 149 132 141 147 147 151 151 158 167 175 184 196 182 180 178 172 155
268 307 286 276 294 294 294 319 299 281 272 284 253 254 266 209 218 219 205 178 141 131 128 130 124 153 136 128 128 132 141 149 152 152 166 170 175 180 162 165 171 183 188 176
254 301 321 313 322 313 323 310 290 271 258 261 235 232 269 221 219 193 158 133 116 96 111 110 93 85 103 120 127 138 144 152 157 167 182 177 183 170 154 168 182 192 188 192
240 211 174 258 284 255 281 312 318 287 240 247 228 232 251 252 173 142 134 129 105 87 89 95 96 98 109 136 143 152 158 161 171 179 188 184 188 182 184 182 188 197 196 207
243 247 180 189 225 247 234 232 224 261 273 287 261 238 253 70 49 77 97 83 76 79 93 104 108 135 166 150 143 157 169 173 172 184 188 174 181 184 196 198 190 197 204 210
262 253 58 90 302 281 233 232 281 298 288 278 250 240 254 87 68 79 101 100 119 109 108 126 125 133 136 138 149 175 179 178 178 184 182 182 181 187 194 209 207 205 207 204
311 283 221 192 279 283 293 291 230 213 266 271 264 240 233 186 205 38 56 57 96 93 70 104 146 158 137 138 166 175 166 185 183 176 189 190 178 182 190 208 228 236 237 212
258 233 244 190 208 216 199 224 226 237 244 255 283 274 350 138 129 88 49 49 29 15 12 350 143 115 106 119 152 157 172 175 173 180 180 184 176 184 189 207 220 226 232 215
226 236 250 232 204 293 240 226 199 210 250 241 264 272 354 64 89 76 31 29 14 355 334 316 29 105 97 79 232 187 198 180 175 169 174 189 185 176 185 209 226 224 228 222
171 186 265 270 259 249 251 243 227 222 261 245 245 260 327 25 36 44 27 29 355 336 327 327 349 17 147 180 276 20 333 291 192 150 173 193 200 186 195 211 224 225 228 234
200 210 218 236 253 214 235 243 226 206 225 247 244 264 282 312 335 347 359 3 329 314 321 338 342 331 317 283 205 357 335 347 13 62 187 218 215 207 213 223 225 224 222 221
131 239 253 269 275 264 251 244 223 221 227 237 259 267 271 293 298 313 334 321 317 331 339 342 331 328 334 347 345 334 314 341 331 281 243 250 240 230 226 233 237 230 221 218
166 244 279 273 261 262 272 258 238 235 239 248 268 275 273 288 313 321 319 323 313 305 311 326 326 323 319 307 299 311 317 312 279 254 247 253 248 235 233 232 234 234 228 221
180 191 243 267 272 306 268 238 220 226 226 221 242 255 298 308 304 298 299 295 289 294 300 301 301 298 302 297 283 279 290 297 270 258 256 244 250 238 237 230 225 231 231 225
171 183 229 275 306 249 246 234 203 223 242 232 254 271 294 297 297 282 263 268 299 312 308 297 299 306 308 307 303 295 296 288 274 281 283 273 284 272 260 238 229 235 239 232
186 181 218 238 255 269 266 230 187 216 269 235 239 270 303 315 312 292 322 358 309 303 297 294 294 297 305 305 301 308 306 295 290 290 292 286 283 275 260 245 239 236 235 241
183 174 208 225 246 256 262 116 3 109 279 271 235 274 300 337 294 278 336 344 340 334 322 321 323 312 304 299 301 298 291 288 284 286 289 287 281 271 252 244 238 242 230 234
175 196 215 228 244 263 255 185 104 183 256 319 324 287 274 239 251 285 317 328 334 329 322 318 307 297 294 305 302 284 284 277 282 297 301 299 292 282 255 244 234 238 234 235
182 188 200 199 224 249 188 135 198 239 287 323 324 308 284 276 295 304 310 314 322 321 311 304 302 300 304 310 302 289 283 290 310 314 305 299 298 299 269 245 247 246 230 236
203 201 196 202 220 246 215 225 251 295 302 303 302 303 303 292 293 299 300 301 299 297 301 301 300 301 305 304 293 288 293 309 316 307 294 291 295 289 269 228 227 232 226 233
223 210 231 263 265 257 253 258 284 295 283 290 293 293 290 276 279 292 297 296 297 297 296 300 303 302 306 311 308 290 302 306 295 288 290 293 288 291 290 254 221 222 229 230
223 176 226 251 270 290 266 266 288 299 301 298 294 290 278 266 269 275 280 282 286 293 295 300 294 293 299 307 304 304 304 300 290 286 288 289 281 276 282 272 231 225 229 226
203 199 212 240 245 248 269 281 299 288 287 286 286 291 288 262 264 273 274 277 282 288 295 297 293 290 293 297 296 298 295 285 278 290 294 287 277 275 274 279 290 262 255 265